Location: Les Chemineaux
(47.3024°N, 1.5104°E)
Time: 19:39:57
(UTC+00:00)

Cosmos-2242 - Pass Details

Date: 19 May 2025
Orbit: 569 x 594 km, 82.5° (Epoch: 22 June)

Event Time Altitude Azimuth Distance (km) Brightness Sun altitude
Exits shadow 21:27:47 - 207° (SSW) 2,262 5.7 -15.5°
Reaches altitude 10° 21:28:38 10° 210° (SSW) 1,927 5.3 -15.6°
Maximum altitude 21:32:45 46° 284° (WNW) 810 4.0 -15.9°
Drops below altitude 10° 21:36:52 10° 358° (N) 1,938 6.5 -16.3°
Sets 21:39:10 0° 5° (N) 2,842 7.4 -16.5°
